Stündliche Wetter Celaya

Heute, 26 Januar, Dienstag

Zeit Temperatur Niederschläge Wind Luftdruck Luftfeuchtigkeit
00:00 +14°C° 0 mm 1 m/S 616 mmHg 60%
01:00 +13°C° 0 mm 1 m/S 616 mmHg 63%
02:00 +13°C° 0 mm 1 m/S 615 mmHg 65%
03:00 +12°C° 0 mm 1 m/S 615 mmHg 67%
04:00 +12°C° 0 mm 1 m/S 615 mmHg 70%
05:00 +12°C° 0 mm 1 m/S 615 mmHg 72%
06:00 +13°C° 0 mm 1 m/S 616 mmHg 66%
07:00 +15°C° 0 mm 1 m/S 616 mmHg 60%
08:00 +16°C° 0 mm 1 m/S 617 mmHg 53%
09:00 +20°C° 0 mm 1 m/S 618 mmHg 45%
10:00 +23°C° 0 mm 2 m/S 619 mmHg 36%
11:00 +26°C° 0 mm 2 m/S 619 mmHg 27%
12:00 +28°C° 0 mm 3 m/S 619 mmHg 23%
13:00 +29°C° 0 mm 3 m/S 619 mmHg 19%
14:00 +30°C° 0 mm 4 m/S 619 mmHg 15%
15:00 +29°C° 0 mm 4 m/S 618 mmHg 17%
16:00 +28°C° 0 mm 3 m/S 618 mmHg 19%
17:00 +27°C° 0 mm 3 m/S 618 mmHg 21%
18:00 +24°C° 0 mm 3 m/S 618 mmHg 27%
19:00 +20°C° 0 mm 2 m/S 617 mmHg 32%
20:00 +19°C° 0 mm 1 m/S 617 mmHg 38%
21:00 +18°C° 0 mm 1 m/S 617 mmHg 41%
22:00 +16°C° 0 mm 1 m/S 617 mmHg 43%
23:00 +14°C° 0 mm 0 m/S 617 mmHg 45%

Morgen, 27 Januar, Mittwoch

Zeit Temperatur Niederschläge Wind Luftdruck Luftfeuchtigkeit
00:00 +13°C° 0 mm 0 m/S 616 mmHg 47%
01:00 +13°C° 0 mm 0 m/S 616 mmHg 48%
02:00 +12°C° 0 mm 0 m/S 616 mmHg 50%
03:00 +12°C° 0 mm 0 m/S 616 mmHg 51%
04:00 +12°C° 0 mm 0 m/S 616 mmHg 53%
05:00 +11°C° 0 mm 0 m/S 616 mmHg 54%
06:00 +13°C° 0 mm 0 m/S 617 mmHg 48%
07:00 +15°C° 0 mm 0 m/S 618 mmHg 42%
08:00 +17°C° 0 mm 0 m/S 620 mmHg 37%
09:00 +22°C° 0 mm 1 m/S 620 mmHg 31%
10:00 +25°C° 0 mm 3 m/S 621 mmHg 25%
11:00 +28°C° 0 mm 4 m/S 622 mmHg 20%
12:00 +29°C° 0 mm 5 m/S 622 mmHg 20%
13:00 +29°C° 0 mm 5 m/S 621 mmHg 21%
14:00 +30°C° 0 mm 6 m/S 621 mmHg 21%
15:00 +28°C° 0 mm 7 m/S 621 mmHg 29%
16:00 +24°C° 0 mm 7 m/S 620 mmHg 36%
17:00 +22°C° 0 mm 7 m/S 619 mmHg 44%
18:00 +20°C° 0 mm 7 m/S 620 mmHg 53%
19:00 +17°C° 0 mm 6 m/S 620 mmHg 61%
20:00 +15°C° 0 mm 5 m/S 620 mmHg 70%
21:00 +15°C° 0 mm 5 m/S 620 mmHg 72%
22:00 +14°C° 0 mm 5 m/S 620 mmHg 75%
23:00 +13°C° 0 mm 5 m/S 621 mmHg 77%

übermorgen, 28 Januar, Donnerstag

Zeit Temperatur Niederschläge Wind Luftdruck Luftfeuchtigkeit
00:00 +13°C° 0 mm 5 m/S 620 mmHg 76%
01:00 +12°C° 0 mm 4 m/S 620 mmHg 76%
02:00 +12°C° 0 mm 4 m/S 620 mmHg 75%
03:00 +11°C° 0 mm 4 m/S 620 mmHg 78%
04:00 +11°C° 0 mm 4 m/S 620 mmHg 80%
05:00 +10°C° 0 mm 4 m/S 620 mmHg 82%
06:00 +11°C° 0 mm 4 m/S 621 mmHg 76%
07:00 +12°C° 0 mm 4 m/S 622 mmHg 70%
08:00 +13°C° 0 mm 4 m/S 623 mmHg 64%
09:00 +17°C° 0 mm 4 m/S 623 mmHg 55%
10:00 +19°C° 0 mm 4 m/S 623 mmHg 47%
11:00 +21°C° 0 mm 4 m/S 624 mmHg 38%
12:00 +23°C° 0 mm 4 m/S 623 mmHg 36%
13:00 +25°C° 0 mm 4 m/S 623 mmHg 33%
14:00 +26°C° 0 mm 4 m/S 622 mmHg 31%
15:00 +23°C° 0 mm 4 m/S 622 mmHg 33%
16:00 +22°C° 0 mm 4 m/S 621 mmHg 36%
17:00 +21°C° 0 mm 4 m/S 621 mmHg 39%
18:00 +19°C° 0 mm 4 m/S 621 mmHg 46%
19:00 +15°C° 0 mm 4 m/S 621 mmHg 54%
20:00 +13°C° 0 mm 3 m/S 620 mmHg 61%
21:00 +12°C° 0 mm 3 m/S 620 mmHg 65%
22:00 +11°C° 0 mm 3 m/S 620 mmHg 69%
23:00 +10°C° 0 mm 3 m/S 620 mmHg 74%

29 Januar, Freitag

Zeit Temperatur Niederschläge Wind Luftdruck Luftfeuchtigkeit
00:00 +10°C° 0 mm 3 m/S 619 mmHg 77%
01:00 +9°C° 0 mm 2 m/S 619 mmHg 80%
02:00 +8°C° 0 mm 2 m/S 619 mmHg 83%
03:00 +8°C° 0 mm 2 m/S 618 mmHg 85%
04:00 +8°C° 0 mm 2 m/S 618 mmHg 87%
05:00 +8°C° 0 mm 1 m/S 618 mmHg 88%
06:00 +10°C° 0 mm 1 m/S 619 mmHg 81%
07:00 +11°C° 0 mm 1 m/S 619 mmHg 74%
08:00 +13°C° 0 mm 1 m/S 620 mmHg 67%
09:00 +16°C° 0 mm 1 m/S 621 mmHg 57%
10:00 +21°C° 0 mm 1 m/S 622 mmHg 47%
11:00 +22°C° 0 mm 0 m/S 623 mmHg 37%
12:00 +25°C° 0 mm 1 m/S 622 mmHg 32%
13:00 +26°C° 0 mm 2 m/S 621 mmHg 28%
14:00 +27°C° 0 mm 2 m/S 621 mmHg 24%
15:00 +26°C° 0 mm 2 m/S 620 mmHg 25%
16:00 +26°C° 0 mm 2 m/S 620 mmHg 25%
17:00 +25°C° 0 mm 2 m/S 620 mmHg 26%
18:00 +23°C° 0 mm 1 m/S 619 mmHg 30%
19:00 +20°C° 0 mm 1 m/S 619 mmHg 34%
20:00 +18°C° 0 mm 1 m/S 619 mmHg 39%
21:00 +16°C° 0 mm 1 m/S 619 mmHg 47%
22:00 +15°C° 0 mm 1 m/S 619 mmHg 54%
23:00 +14°C° 0 mm 1 m/S 618 mmHg 61%

30 Januar, Samstag

Zeit Temperatur Niederschläge Wind Luftdruck Luftfeuchtigkeit
00:00 +14°C° 0 mm 1 m/S 618 mmHg 65%
01:00 +13°C° 0 mm 1 m/S 618 mmHg 69%
02:00 +13°C° 0 mm 1 m/S 617 mmHg 73%
03:00 +12°C° 0 mm 1 m/S 617 mmHg 75%
04:00 +11°C° 0 mm 0 m/S 617 mmHg 77%
05:00 +10°C° 0 mm 0 m/S 616 mmHg 79%
06:00 +12°C° 0 mm 0 m/S 617 mmHg 72%
07:00 +14°C° 0 mm 0 m/S 618 mmHg 64%
08:00 +16°C° 0 mm 0 m/S 619 mmHg 56%
09:00 +21°C° 0 mm 1 m/S 620 mmHg 47%
10:00 +23°C° 0 mm 2 m/S 621 mmHg 38%
11:00 +26°C° 0 mm 2 m/S 621 mmHg 29%
12:00 +27°C° 0 mm 2 m/S 621 mmHg 26%
13:00 +28°C° 0 mm 3 m/S 620 mmHg 22%
14:00 +29°C° 0 mm 3 m/S 620 mmHg 19%
15:00 +28°C° 0 mm 2 m/S 619 mmHg 20%
16:00 +28°C° 0 mm 2 m/S 619 mmHg 21%
17:00 +27°C° 0 mm 1 m/S 618 mmHg 23%
18:00 +24°C° 0 mm 1 m/S 618 mmHg 27%
19:00 +22°C° 0 mm 1 m/S 618 mmHg 31%
20:00 +18°C° 0 mm 0 m/S 617 mmHg 35%
21:00 +17°C° 0 mm 0 m/S 618 mmHg 36%
22:00 +18°C° 0 mm 1 m/S 618 mmHg 38%
23:00 +18°C° 0 mm 1 m/S 618 mmHg 40%

31 Januar, Sonntag

Zeit Temperatur Niederschläge Wind Luftdruck Luftfeuchtigkeit
00:00 +16°C° 0 mm 1 m/S 617 mmHg 43%
01:00 +14°C° 0 mm 0 m/S 617 mmHg 46%
02:00 +13°C° 0 mm 0 m/S 617 mmHg 49%
03:00 +13°C° 0 mm 0 m/S 617 mmHg 51%
04:00 +12°C° 0 mm 0 m/S 617 mmHg 53%
05:00 +12°C° 0 mm 0 m/S 617 mmHg 56%
06:00 +14°C° 0 mm 0 m/S 618 mmHg 51%
07:00 +16°C° 0 mm 0 m/S 619 mmHg 46%
08:00 +18°C° 0 mm 0 m/S 620 mmHg 41%
09:00 +23°C° 0 mm 1 m/S 621 mmHg 35%
10:00 +25°C° 0 mm 2 m/S 621 mmHg 29%
11:00 +28°C° 0 mm 2 m/S 622 mmHg 23%
12:00 +29°C° 0 mm 3 m/S 622 mmHg 21%
13:00 +30°C° 0 mm 3 m/S 621 mmHg 20%
14:00 +30°C° 0 mm 3 m/S 620 mmHg 18%
15:00 +29°C° 0 mm 4 m/S 620 mmHg 20%
16:00 +28°C° 0 mm 4 m/S 620 mmHg 21%
17:00 +27°C° 0 mm 5 m/S 620 mmHg 23%
18:00 +25°C° 0 mm 4 m/S 620 mmHg 31%
19:00 +21°C° 0 mm 4 m/S 620 mmHg 39%
20:00 +18°C° 0 mm 3 m/S 620 mmHg 47%
21:00 +17°C° 0 mm 3 m/S 620 mmHg 59%
22:00 +16°C° 0 mm 3 m/S 620 mmHg 70%
23:00 +14°C° 0 mm 3 m/S 620 mmHg 82%
Mehr zeigen

Wir brauchen deine Erlaubnis

Meteoprog und unser Service Anbieter werden persönliche Daten aufbewahren, so wie Cookies, Geräte Bezeichnung oder ähnliche Technologien von deinem Gerät und Prozess, so wie Persönliche Daten Inhalte und Werbungen, genauso wie social Media und den Verkehr zu analysieren.

  • Aufbewahrung und/oder Zugang zu deiner Geräte Informationen.

    Cookies, Geräte Bezeichnung oder andere Informationen, können aufbewahrt oder Zugang zu deinem Gerät erhalten, für den Grund, der oben angegeben wird.

  • Personalisierte Werbung und Inhalte, Messungen, Einblick in das Publikum und Produkt Entwicklung.

    Werbungen und Inhalte können personalisiert werden, basierend auf ein Profil. Mehr Daten können besser personalisierte Werbungen und Inhalte hinzufügen. Werbung und Inhalte können gezeigt und gemessen werden. Einblicke über das Publikum, welche die Werbung gesehen haben und den Inhalt, können abgeleitet werden. So wie Daten können genutzt werden, um es zu verbessern oder die Benutzer Erfahrung zu verbessern das System und die Software.

Wenn du “Ich stimme zu” klickst, erlaubst du uns, die Cookies zu benutzen die Geräte Bezeichnung, den Web oder ähnliche Technologien zu benutzen. Deine Settings, können in deinem Gerät bei deinem Browser geändert werden.

Für den bestimmten Zweck, berechtigten Interessen beruhen darauf, mehr als auf den Inhalt. Du kannst mehr darüber in unseren Privaten und Cookie Politik lesen.